Location: Newark
(25.0000°N, 73.5000°E)
Time: 21:27:57
(UTC+00:00)

RS-15 - Pass Details

Date: 28 February 2020
Orbit: 1898 x 2146 km, 64.8° (Epoch: 06 April)

Event Time Altitude Azimuth Distance (km) Brightness Sun altitude
Rises 23:53:22 0° 334° (NNW) 5,346 10.1 -22.8°
Reaches altitude 10° 23:56:35 10° 334° (NNW) 4,370 9.6 -22.0°
Maximum altitude 00:07:55 88° 247° (WSW) 2,022 8.0 -19.5°
Drops below altitude 10° 00:19:47 10° 158° (SSE) 4,560 10.3 -16.8°
Sets 00:23:13 0° 158° (SSE) 5,586 10.8 -16.0°
